Time,TemperatureF,DewpointF,PressureIn,WindDirection,WindDirectionDegrees,WindSpeedMPH,WindSpeedGustMPH,Humidity,HourlyPrecipIn,Conditions,Clouds,dailyrainin,SoftwareType,DateUTC
2013-02-24 00:01:00,25.0,24.0,-100.00,SW,225,5.0,6.0,94,0.00,,,0.00,,2013-02-24 05:01:00,
2013-02-24 00:11:00,25.0,24.0,-100.00,SW,225,5.0,7.0,94,0.00,,,0.00,,2013-02-24 05:11:00,
2013-02-24 00:22:00,25.0,24.0,-100.00,SW,225,5.0,7.0,94,0.00,,,0.00,,2013-02-24 05:22:00,
2013-02-24 00:32:00,25.0,24.0,-100.00,SSW,203,0.0,3.0,95,0.00,,,0.00,,2013-02-24 05:32:00,
2013-02-24 00:42:00,25.0,24.0,-100.00,South,180,0.0,6.0,95,0.00,,,0.00,,2013-02-24 05:42:00,
2013-02-24 00:52:00,25.0,24.0,-100.00,South,180,0.0,6.0,95,0.00,,,0.00,,2013-02-24 05:52:00,
2013-02-24 01:01:00,25.0,24.0,-100.00,SW,225,2.0,5.0,95,0.00,,,0.00,,2013-02-24 06:01:00,
2013-02-24 01:11:00,25.0,24.0,-100.00,SW,225,2.0,5.0,95,0.00,,,0.00,,2013-02-24 06:11:00,
2013-02-24 01:21:00,24.0,23.0,-100.00,SW,225,0.0,0.0,96,0.00,,,0.00,,2013-02-24 06:21:00,
2013-02-24 01:32:00,25.0,24.0,-100.00,WSW,248,1.0,8.0,97,0.00,,,0.00,,2013-02-24 06:32:00,
2013-02-24 01:42:00,25.0,24.0,-100.00,WSW,248,1.0,8.0,97,0.00,,,0.00,,2013-02-24 06:42:00,
2013-02-24 01:52:00,24.0,24.0,-100.00,WSW,248,6.0,8.0,99,0.00,,,0.00,,2013-02-24 06:52:00,
2013-02-24 02:01:00,24.0,24.0,-100.00,WSW,248,0.0,0.0,100,0.00,,,0.00,,2013-02-24 07:01:00,
2013-02-24 02:12:00,24.0,24.0,-100.00,WSW,248,0.0,0.0,100,0.00,,,0.00,,2013-02-24 07:12:00,
2013-02-24 02:21:00,24.0,24.0,-100.00,SSW,203,3.0,6.0,100,0.00,,,0.00,,2013-02-24 07:21:00,
2013-02-24 02:32:00,24.0,24.0,-100.00,SSW,203,1.0,7.0,100,0.00,,,0.00,,2013-02-24 07:32:00,
2013-02-24 02:42:00,24.0,24.0,-100.00,SSW,203,1.0,7.0,100,0.00,,,0.00,,2013-02-24 07:42:00,
2013-02-24 02:52:00,24.0,24.0,-100.00,SW,225,2.0,7.0,100,0.00,,,0.00,,2013-02-24 07:52:00,
2013-02-24 03:01:00,24.0,24.0,-100.00,SSW,203,5.0,5.0,100,0.00,,,0.00,,2013-02-24 08:01:00,
2013-02-24 03:11:00,24.0,24.0,-100.00,SSE,158,0.0,8.0,100,0.00,,,0.00,,2013-02-24 08:11:00,
2013-02-24 03:22:00,24.0,24.0,-100.00,SSE,158,0.0,8.0,100,0.00,,,0.00,,2013-02-24 08:22:00,
2013-02-24 03:32:00,24.0,24.0,-100.00,SSW,203,2.0,6.0,100,0.00,,,0.00,,2013-02-24 08:32:00,
2013-02-24 03:42:00,24.0,24.0,-100.00,SSW,203,2.0,6.0,100,0.00,,,0.00,,2013-02-24 08:42:00,
2013-02-24 03:54:00,24.0,24.0,-100.00,SSW,203,6.0,6.0,100,0.00,,,0.00,,2013-02-24 08:54:00,
2013-02-24 04:01:00,24.0,24.0,-100.00,SW,225,6.0,8.0,100,0.00,,,0.00,,2013-02-24 09:01:00,
2013-02-24 04:11:00,24.0,24.0,-100.00,SW,225,6.0,8.0,100,0.00,,,0.00,,2013-02-24 09:11:00,
2013-02-24 04:21:00,24.0,24.0,-100.00,SSW,203,6.0,7.0,100,0.00,,,0.00,,2013-02-24 09:21:00,
2013-02-24 04:31:00,24.0,24.0,-100.00,South,180,3.0,7.0,100,0.00,,,0.00,,2013-02-24 09:31:00,
2013-02-24 04:42:00,24.0,24.0,-100.00,South,180,3.0,7.0,100,0.00,,,0.00,,2013-02-24 09:42:00,
2013-02-24 04:52:00,24.0,24.0,-100.00,SE,135,0.0,0.0,100,0.00,,,0.00,,2013-02-24 09:52:00,
2013-02-24 05:01:00,24.0,24.0,-100.00,SSE,158,0.0,5.0,100,0.00,,,0.00,,2013-02-24 10:01:00,
2013-02-24 05:11:00,24.0,24.0,-100.00,SSW,203,2.0,5.0,100,0.00,,,0.00,,2013-02-24 10:11:00,
2013-02-24 05:21:00,24.0,24.0,-100.00,SSW,203,2.0,5.0,100,0.00,,,0.00,,2013-02-24 10:21:00,
2013-02-24 05:32:00,24.0,24.0,-100.00,SW,225,0.0,0.0,100,0.00,,,0.00,,2013-02-24 10:32:00,
2013-02-24 05:41:00,24.0,24.0,-100.00,SW,225,0.0,0.0,100,0.00,,,0.00,,2013-02-24 10:41:00,
2013-02-24 05:52:00,24.0,24.0,-100.00,SW,225,0.0,0.0,100,0.00,,,0.00,,2013-02-24 10:52:00,
2013-02-24 06:01:00,23.0,23.0,-100.00,South,180,0.0,0.0,100,0.00,,,0.00,,2013-02-24 11:01:00,
2013-02-24 06:11:00,23.0,23.0,-100.00,South,180,0.0,0.0,100,0.00,,,0.00,,2013-02-24 11:11:00,
2013-02-24 06:21:00,23.0,23.0,-100.00,South,180,0.0,0.0,100,0.00,,,0.00,,2013-02-24 11:21:00,
2013-02-24 06:32:00,23.0,23.0,-100.00,South,180,0.0,0.0,100,0.00,,,0.00,,2013-02-24 11:32:00,
2013-02-24 06:41:00,23.0,23.0,-100.00,South,180,0.0,0.0,100,0.00,,,0.00,,2013-02-24 11:41:00,
2013-02-24 06:53:00,23.0,23.0,-100.00,South,180,0.0,8.0,100,0.00,,,0.00,,2013-02-24 11:53:00,
2013-02-24 07:01:00,23.0,23.0,-100.00,SW,225,1.0,0.0,100,0.00,,,0.00,,2013-02-24 12:01:00,
2013-02-24 07:11:00,23.0,23.0,-100.00,SW,225,1.0,0.0,100,0.00,,,0.00,,2013-02-24 12:11:00,
2013-02-24 07:22:00,23.0,23.0,-100.00,South,180,0.0,0.0,100,0.00,,,0.00,,2013-02-24 12:22:00,
2013-02-24 07:32:00,22.0,22.0,-100.00,South,180,0.0,0.0,100,0.00,,,0.00,,2013-02-24 12:32:00,
2013-02-24 07:46:00,22.0,22.0,-100.00,South,180,0.0,0.0,100,0.00,,,0.00,,2013-02-24 12:46:00,
2013-02-24 07:57:00,21.0,21.0,-100.00,SSW,203,1.0,0.0,100,0.00,,,0.00,,2013-02-24 12:57:00,
2013-02-24 08:13:00,22.0,22.0,-100.00,South,180,0.0,0.0,100,0.00,,,0.00,,2013-02-24 13:13:00,
2013-02-24 08:26:00,22.0,22.0,-100.00,South,180,0.0,0.0,100,0.00,,,0.00,,2013-02-24 13:26:00,
2013-02-24 08:34:00,23.0,23.0,-100.00,South,180,0.0,0.0,100,0.00,,,0.00,,2013-02-24 13:34:00,
2013-02-24 08:55:00,24.0,24.0,-100.00,South,180,0.0,0.0,100,0.00,,,0.00,,2013-02-24 13:55:00,
2013-02-24 09:04:00,24.0,24.0,-100.00,SSW,203,7.0,8.0,100,0.00,,,0.00,,2013-02-24 14:04:00,
2013-02-24 09:14:00,24.0,24.0,-100.00,SW,225,3.0,5.0,100,0.00,,,0.00,,2013-02-24 14:14:00,
2013-02-24 09:25:00,24.0,24.0,-100.00,SW,225,3.0,5.0,100,0.00,,,0.00,,2013-02-24 14:25:00,
2013-02-24 09:34:00,25.0,25.0,-100.00,SSW,203,5.0,7.0,100,0.00,,,0.00,,2013-02-24 14:34:00,
2013-02-24 09:44:00,25.0,25.0,-100.00,SSW,203,5.0,7.0,100,0.00,,,0.00,,2013-02-24 14:44:00,
2013-02-24 09:54:00,26.0,26.0,-100.00,SW,225,6.0,8.0,100,0.00,,,0.00,,2013-02-24 14:54:00,
2013-02-24 10:03:00,26.0,26.0,-100.00,SW,225,7.0,8.0,100,0.00,,,0.00,,2013-02-24 15:03:00,
2013-02-24 10:13:00,26.0,26.0,-100.00,WSW,248,8.0,9.0,100,0.00,,,0.00,,2013-02-24 15:13:00,
2013-02-24 10:23:00,26.0,26.0,-100.00,WSW,248,8.0,9.0,100,0.00,,,0.00,,2013-02-24 15:23:00,
2013-02-24 10:32:00,27.0,27.0,-100.00,WSW,248,5.0,8.0,100,0.00,,,0.00,,2013-02-24 15:32:00,
2013-02-24 10:42:00,27.0,27.0,-100.00,WSW,248,5.0,8.0,100,0.00,,,0.00,,2013-02-24 15:42:00,
2013-02-24 10:52:00,27.0,27.0,-100.00,WSW,248,5.0,6.0,100,0.00,,,0.00,,2013-02-24 15:52:00,
2013-02-24 11:01:00,28.0,28.0,-100.00,SE,135,3.0,7.0,100,0.00,,,0.00,,2013-02-24 16:01:00,
2013-02-24 11:11:00,28.0,28.0,-100.00,WSW,248,3.0,8.0,100,0.00,,,0.00,,2013-02-24 16:11:00,
2013-02-24 11:21:00,28.0,28.0,-100.00,WSW,248,3.0,8.0,100,0.00,,,0.00,,2013-02-24 16:21:00,
2013-02-24 11:32:00,29.0,29.0,-100.00,WSW,248,0.0,3.0,100,0.00,,,0.00,,2013-02-24 16:32:00,
2013-02-24 11:42:00,29.0,29.0,-100.00,WSW,248,0.0,3.0,100,0.00,,,0.00,,2013-02-24 16:42:00,
2013-02-24 11:52:00,30.0,30.0,-100.00,WNW,293,7.0,10.0,100,0.00,,,0.00,,2013-02-24 16:52:00,
2013-02-24 12:01:00,30.0,30.0,-100.00,WNW,293,3.0,6.0,100,0.00,,,0.00,,2013-02-24 17:01:00,
2013-02-24 12:11:00,30.0,30.0,-100.00,WNW,293,3.0,6.0,100,0.00,,,0.00,,2013-02-24 17:11:00,
2013-02-24 12:21:00,30.0,29.0,-100.00,West,270,6.0,10.0,98,0.00,,,0.00,,2013-02-24 17:21:00,
2013-02-24 12:32:00,31.0,30.0,-100.00,WNW,293,6.0,8.0,97,0.00,,,0.00,,2013-02-24 17:32:00,
2013-02-24 12:42:00,31.0,30.0,-100.00,WNW,293,6.0,8.0,97,0.00,,,0.00,,2013-02-24 17:42:00,
2013-02-24 12:53:00,31.0,30.0,-100.00,WNW,293,6.0,12.0,96,0.00,,,0.00,,2013-02-24 17:53:00,
2013-02-24 13:02:00,32.0,31.0,-100.00,WNW,293,8.0,10.0,95,0.00,,,0.00,,2013-02-24 18:02:00,
2013-02-24 13:11:00,32.0,31.0,-100.00,WNW,293,8.0,10.0,95,0.00,,,0.00,,2013-02-24 18:11:00,
2013-02-24 13:22:00,32.0,30.0,-100.00,West,270,7.0,10.0,94,0.00,,,0.00,,2013-02-24 18:22:00,
2013-02-24 13:32:00,33.0,31.0,-100.00,West,270,6.0,13.0,93,0.00,,,0.00,,2013-02-24 18:32:00,
2013-02-24 13:42:00,33.0,31.0,-100.00,West,270,6.0,13.0,93,0.00,,,0.00,,2013-02-24 18:42:00,
2013-02-24 13:52:00,33.0,31.0,-100.00,West,270,5.0,7.0,91,0.00,,,0.00,,2013-02-24 18:52:00,
2013-02-24 14:01:00,33.0,30.0,-100.00,WNW,293,8.0,10.0,88,0.00,,,0.00,,2013-02-24 19:01:00,
2013-02-24 14:11:00,33.0,30.0,-100.00,WNW,293,8.0,10.0,88,0.00,,,0.00,,2013-02-24 19:11:00,
2013-02-24 14:22:00,33.0,30.0,-100.00,West,270,7.0,7.0,87,0.00,,,0.00,,2013-02-24 19:22:00,
2013-02-24 14:32:00,33.0,31.0,-100.00,West,270,7.0,10.0,91,0.00,,,0.00,,2013-02-24 19:32:00,
2013-02-24 14:42:00,33.0,31.0,-100.00,West,270,7.0,10.0,91,0.00,,,0.00,,2013-02-24 19:42:00,
2013-02-24 14:52:00,34.0,31.0,-100.00,West,270,7.0,13.0,89,0.00,,,0.00,,2013-02-24 19:52:00,
2013-02-24 15:02:00,35.0,30.0,-100.00,West,270,8.0,14.0,83,0.00,,,0.00,,2013-02-24 20:02:00,
2013-02-24 15:11:00,35.0,30.0,-100.00,West,270,8.0,14.0,83,0.00,,,0.00,,2013-02-24 20:11:00,
2013-02-24 15:21:00,34.0,29.0,-100.00,West,270,7.0,12.0,82,0.00,,,0.00,,2013-02-24 20:21:00,
2013-02-24 15:32:00,34.0,29.0,-100.00,West,270,8.0,10.0,83,0.00,,,0.00,,2013-02-24 20:32:00,
2013-02-24 15:42:00,35.0,30.0,-100.00,WNW,293,1.0,0.0,82,0.00,,,0.00,,2013-02-24 20:42:00,
2013-02-24 15:52:00,35.0,30.0,-100.00,WNW,293,1.0,0.0,82,0.00,,,0.00,,2013-02-24 20:52:00,
2013-02-24 16:02:00,34.0,29.0,-100.00,WNW,293,6.0,9.0,81,0.00,,,0.00,,2013-02-24 21:02:00,
2013-02-24 16:11:00,34.0,29.0,-100.00,WNW,293,6.0,9.0,81,0.00,,,0.00,,2013-02-24 21:11:00,
2013-02-24 16:21:00,35.0,29.0,-100.00,WNW,293,8.0,9.0,79,0.00,,,0.00,,2013-02-24 21:21:00,
2013-02-24 16:32:00,35.0,29.0,-100.00,West,270,6.0,7.0,77,0.00,,,0.00,,2013-02-24 21:32:00,
2013-02-24 16:42:00,35.0,29.0,-100.00,West,270,6.0,7.0,77,0.00,,,0.00,,2013-02-24 21:42:00,
2013-02-24 16:52:00,35.0,28.0,-100.00,West,270,2.0,9.0,75,0.00,,,0.00,,2013-02-24 21:52:00,
2013-02-24 17:01:00,36.0,28.0,-100.00,WNW,293,6.0,8.0,72,0.00,,,0.00,,2013-02-24 22:01:00,
2013-02-24 17:11:00,36.0,28.0,-100.00,WNW,293,6.0,8.0,72,0.00,,,0.00,,2013-02-24 22:11:00,
2013-02-24 17:21:00,35.0,27.0,-100.00,WNW,293,6.0,8.0,72,0.00,,,0.00,,2013-02-24 22:21:00,
2013-02-24 17:32:00,35.0,27.0,-100.00,West,270,6.0,9.0,72,0.00,,,0.00,,2013-02-24 22:32:00,
2013-02-24 17:42:00,35.0,27.0,-100.00,West,270,6.0,9.0,72,0.00,,,0.00,,2013-02-24 22:42:00,
2013-02-24 17:52:00,35.0,28.0,-100.00,West,270,7.0,9.0,74,0.00,,,0.00,,2013-02-24 22:52:00,
2013-02-24 18:02:00,35.0,28.0,-100.00,WNW,293,6.0,9.0,75,0.00,,,0.00,,2013-02-24 23:02:00,
2013-02-24 18:11:00,35.0,28.0,-100.00,WNW,293,6.0,9.0,75,0.00,,,0.00,,2013-02-24 23:11:00,
2013-02-24 18:21:00,34.0,28.0,-100.00,West,270,5.0,7.0,78,0.00,,,0.00,,2013-02-24 23:21:00,
2013-02-24 18:32:00,34.0,28.0,-100.00,WNW,293,6.0,6.0,77,0.00,,,0.00,,2013-02-24 23:32:00,
2013-02-24 18:42:00,34.0,28.0,-100.00,WNW,293,6.0,6.0,77,0.00,,,0.00,,2013-02-24 23:42:00,
2013-02-24 18:52:00,34.0,28.0,-100.00,West,270,6.0,7.0,77,0.00,,,0.00,,2013-02-24 23:52:00,
2013-02-24 19:01:00,33.0,27.0,-100.00,West,270,2.0,5.0,79,0.00,,,0.00,,2013-02-25 00:01:00,
2013-02-24 19:11:00,33.0,27.0,-100.00,West,270,2.0,5.0,79,0.00,,,0.00,,2013-02-25 00:11:00,
2013-02-24 19:21:00,33.0,28.0,-100.00,SW,225,0.0,5.0,80,0.00,,,0.00,,2013-02-25 00:21:00,
2013-02-24 19:32:00,32.0,27.0,-100.00,SW,225,0.0,0.0,83,0.00,,,0.00,,2013-02-25 00:32:00,
2013-02-24 19:42:00,32.0,27.0,-100.00,SW,225,0.0,0.0,83,0.00,,,0.00,,2013-02-25 00:42:00,
2013-02-24 19:52:00,31.0,27.0,-100.00,SW,225,0.0,0.0,84,0.00,,,0.00,,2013-02-25 00:52:00,
2013-02-24 20:01:00,31.0,27.0,-100.00,SW,225,0.0,0.0,86,0.00,,,0.00,,2013-02-25 01:01:00,
2013-02-24 20:11:00,30.0,27.0,-100.00,SW,225,0.0,0.0,89,0.00,,,0.00,,2013-02-25 01:11:00,
2013-02-24 20:21:00,30.0,27.0,-100.00,SW,225,0.0,0.0,89,0.00,,,0.00,,2013-02-25 01:21:00,
2013-02-24 20:32:00,29.0,26.0,-100.00,SW,225,0.0,0.0,90,0.00,,,0.00,,2013-02-25 01:32:00,
2013-02-24 20:42:00,29.0,26.0,-100.00,SW,225,0.0,0.0,90,0.00,,,0.00,,2013-02-25 01:42:00,
2013-02-24 20:52:00,29.0,27.0,-100.00,SW,225,0.0,0.0,91,0.00,,,0.00,,2013-02-25 01:52:00,
2013-02-24 21:01:00,29.0,27.0,-100.00,SW,225,0.0,0.0,92,0.00,,,0.00,,2013-02-25 02:01:00,
2013-02-24 21:11:00,29.0,27.0,-100.00,SW,225,0.0,0.0,92,0.00,,,0.00,,2013-02-25 02:11:00,
2013-02-24 21:21:00,29.0,27.0,-100.00,SW,225,0.0,0.0,92,0.00,,,0.00,,2013-02-25 02:21:00,
2013-02-24 21:32:00,28.0,26.0,-100.00,SW,225,0.0,0.0,93,0.00,,,0.00,,2013-02-25 02:32:00,
2013-02-24 21:41:00,28.0,26.0,-100.00,SW,225,0.0,0.0,93,0.00,,,0.00,,2013-02-25 02:41:00,
2013-02-24 21:52:00,27.0,26.0,-100.00,SW,225,0.0,0.0,94,0.00,,,0.00,,2013-02-25 02:52:00,
2013-02-24 22:02:00,26.0,25.0,-100.00,SW,225,0.0,0.0,95,0.00,,,0.00,,2013-02-25 03:02:00,
2013-02-24 22:11:00,26.0,25.0,-100.00,SW,225,0.0,0.0,95,0.00,,,0.00,,2013-02-25 03:11:00,
2013-02-24 22:21:00,26.0,25.0,-100.00,SW,225,0.0,0.0,95,0.00,,,0.00,,2013-02-25 03:21:00,
2013-02-24 22:31:00,26.0,25.0,-100.00,SW,225,0.0,0.0,96,0.00,,,0.00,,2013-02-25 03:31:00,
2013-02-24 22:42:00,26.0,25.0,-100.00,SW,225,0.0,0.0,96,0.00,,,0.00,,2013-02-25 03:42:00,
2013-02-24 22:52:00,26.0,-99.9,-100.00,SW,225,0.0,0.0,-999,0.00,,,0.00,,2013-02-25 03:52:00,
2013-02-24 23:02:00,25.0,-99.9,-100.00,SW,225,0.0,0.0,-999,0.00,,,0.00,,2013-02-25 04:02:00,
2013-02-24 23:11:00,25.0,-99.9,-100.00,SW,225,0.0,0.0,-999,0.00,,,0.00,,2013-02-25 04:11:00,
2013-02-24 23:21:00,24.0,23.0,-100.00,SW,225,0.0,0.0,97,0.00,,,0.00,,2013-02-25 04:21:00,
2013-02-24 23:32:00,25.0,24.0,-100.00,SW,225,0.0,0.0,97,0.00,,,0.00,,2013-02-25 04:32:00,
2013-02-24 23:42:00,25.0,24.0,-100.00,SW,225,0.0,0.0,97,0.00,,,0.00,,2013-02-25 04:42:00,
2013-02-24 23:52:00,25.0,24.0,-100.00,SW,225,0.0,0.0,96,0.00,,,0.00,,2013-02-25 04:52:00,